• In Russia
  • List of Countries
  • For 7 days
  • Water Temperature
  • Satellite Maps
  • Weather Map
  • Weather Widgets
  • user-avatar
    Login

    Hourly Weather Burdukovo

    Today, 20 January, Sunday

    Time Temperature Precipitation Wind Pressure Humidity
    00:00 -18°C° 0 mm 2 mps 724 mmHg 92%
    01:00 -18°C° 0 mm 2 mps 723 mmHg 91%
    02:00 -19°C° 0 mm 2 mps 722 mmHg 91%
    03:00 -19°C° 0 mm 2 mps 722 mmHg 91%
    04:00 -19°C° 0 mm 2 mps 722 mmHg 91%
    05:00 -20°C° 0 mm 2 mps 722 mmHg 90%
    06:00 -20°C° 0 mm 2 mps 722 mmHg 90%
    07:00 -20°C° 0 mm 2 mps 722 mmHg 90%
    08:00 -19°C° 0 mm 2 mps 722 mmHg 86%
    09:00 -17°C° 0 mm 2 mps 722 mmHg 83%
    10:00 -16°C° 0 mm 2 mps 722 mmHg 79%
    11:00 -14°C° 0 mm 2 mps 722 mmHg 78%
    12:00 -12°C° 0 mm 2 mps 721 mmHg 76%
    13:00 -10°C° 0 mm 2 mps 721 mmHg 74%
    14:00 -10°C° 0 mm 2 mps 721 mmHg 77%
    15:00 -12°C° 0 mm 2 mps 721 mmHg 80%
    16:00 -13°C° 0 mm 2 mps 721 mmHg 83%
    17:00 -14°C° 0 mm 2 mps 721 mmHg 84%
    18:00 -15°C° 0 mm 2 mps 721 mmHg 84%
    19:00 -16°C° 0 mm 2 mps 721 mmHg 84%
    20:00 -16°C° 0 mm 2 mps 721 mmHg 84%
    21:00 -17°C° 0 mm 2 mps 721 mmHg 83%
    22:00 -17°C° 0 mm 2 mps 720 mmHg 83%
    23:00 -17°C° 0 mm 2 mps 720 mmHg 83%

    Tomorrow, 21 January, Monday

    Time Temperature Precipitation Wind Pressure Humidity
    00:00 -17°C° 0 mm 2 mps 720 mmHg 84%
    01:00 -18°C° 0 mm 2 mps 719 mmHg 84%
    02:00 -18°C° 0 mm 2 mps 719 mmHg 84%
    03:00 -18°C° 0 mm 2 mps 719 mmHg 85%
    04:00 -18°C° 0 mm 2 mps 719 mmHg 85%
    05:00 -18°C° 0 mm 2 mps 719 mmHg 85%
    06:00 -18°C° 0 mm 2 mps 719 mmHg 85%
    07:00 -18°C° 0 mm 2 mps 719 mmHg 85%
    08:00 -17°C° 0 mm 2 mps 719 mmHg 82%
    09:00 -15°C° 0 mm 2 mps 719 mmHg 79%
    10:00 -14°C° 0 mm 2 mps 719 mmHg 76%
    11:00 -12°C° 0 mm 2 mps 719 mmHg 76%
    12:00 -9°C° 0 mm 2 mps 719 mmHg 77%
    13:00 -8°C° 0 mm 2 mps 718 mmHg 78%
    14:00 -8°C° 0 mm 2 mps 718 mmHg 81%
    15:00 -8°C° 0 mm 2 mps 719 mmHg 85%
    16:00 -8°C° 0 mm 2 mps 719 mmHg 88%
    17:00 -9°C° 0 mm 2 mps 719 mmHg 89%
    18:00 -9°C° 0 mm 2 mps 719 mmHg 90%
    19:00 -10°C° 0 mm 2 mps 719 mmHg 91%
    20:00 -12°C° 0 mm 2 mps 720 mmHg 91%
    21:00 -12°C° 0 mm 2 mps 720 mmHg 91%
    22:00 -12°C° 0 mm 2 mps 720 mmHg 92%
    23:00 -12°C° 0 mm 2 mps 720 mmHg 92%

    Day after tomorrow, 22 January, Tuesday

    Time Temperature Precipitation Wind Pressure Humidity
    00:00 -12°C° 0 mm 2 mps 720 mmHg 91%
    01:00 -12°C° 0 mm 2 mps 720 mmHg 91%
    02:00 -13°C° 0 mm 2 mps 720 mmHg 91%
    03:00 -13°C° 0 mm 2 mps 720 mmHg 92%
    04:00 -12°C° 0 mm 1 mps 720 mmHg 92%
    05:00 -12°C° 0 mm 1 mps 720 mmHg 91%
    06:00 -13°C° 0 mm 1 mps 720 mmHg 91%
    07:00 -13°C° 0 mm 1 mps 720 mmHg 90%
    08:00 -12°C° 0 mm 1 mps 720 mmHg 87%
    09:00 -11°C° 0 mm 1 mps 721 mmHg 85%
    10:00 -10°C° 0 mm 1 mps 721 mmHg 82%
    11:00 -9°C° 0 mm 1 mps 720 mmHg 79%
    12:00 -7°C° 0 mm 1 mps 720 mmHg 76%
    13:00 -6°C° 0 mm 1 mps 720 mmHg 73%
    14:00 -7°C° 0 mm 1 mps 720 mmHg 77%
    15:00 -8°C° 0 mm 1 mps 720 mmHg 80%
    16:00 -9°C° 0 mm 1 mps 720 mmHg 83%
    17:00 -10°C° 0 mm 1 mps 721 mmHg 82%
    18:00 -11°C° 0 mm 1 mps 721 mmHg 82%
    19:00 -12°C° 0 mm 1 mps 721 mmHg 81%
    20:00 -12°C° 0 mm 1 mps 722 mmHg 80%
    21:00 -12°C° 0 mm 1 mps 722 mmHg 79%
    22:00 -12°C° 0 mm 0 mps 722 mmHg 79%
    23:00 -12°C° 0 mm 0 mps 722 mmHg 80%

    23 January, Wednesday

    Time Temperature Precipitation Wind Pressure Humidity
    00:00 -12°C° 0 mm 1 mps 723 mmHg 81%
    01:00 -11°C° 0 mm 1 mps 723 mmHg 82%
    02:00 -11°C° 0 mm 1 mps 723 mmHg 84%
    03:00 -10°C° 0 mm 1 mps 724 mmHg 87%
    04:00 -10°C° 0 mm 1 mps 724 mmHg 89%
    05:00 -10°C° 0 mm 1 mps 724 mmHg 91%
    06:00 -9°C° 0 mm 1 mps 725 mmHg 92%
    07:00 -9°C° 0 mm 1 mps 725 mmHg 93%
    08:00 -8°C° 0 mm 1 mps 725 mmHg 92%
    09:00 -8°C° 0 mm 1 mps 726 mmHg 90%
    10:00 -8°C° 0 mm 2 mps 726 mmHg 89%
    11:00 -7°C° 0 mm 2 mps 726 mmHg 85%
    12:00 -8°C° 0 mm 3 mps 726 mmHg 82%
    13:00 -7°C° 0 mm 3 mps 726 mmHg 79%
    14:00 -8°C° 0 mm 3 mps 726 mmHg 82%
    15:00 -8°C° 0 mm 2 mps 727 mmHg 85%
    16:00 -10°C° 0 mm 2 mps 727 mmHg 87%
    17:00 -12°C° 0 mm 2 mps 728 mmHg 89%
    18:00 -11°C° 0 mm 1 mps 728 mmHg 91%
    19:00 -13°C° 0 mm 1 mps 729 mmHg 93%
    20:00 -13°C° 0 mm 1 mps 729 mmHg 93%
    21:00 -13°C° 0 mm 1 mps 729 mmHg 93%
    22:00 -14°C° 0 mm 1 mps 730 mmHg 94%
    23:00 -14°C° 0 mm 1 mps 730 mmHg 94%

    24 January, Thursday

    Time Temperature Precipitation Wind Pressure Humidity
    00:00 -15°C° 0 mm 1 mps 730 mmHg 94%
    01:00 -15°C° 0 mm 0 mps 730 mmHg 94%
    02:00 -15°C° 0 mm 0 mps 730 mmHg 93%
    03:00 -15°C° 0 mm 1 mps 730 mmHg 93%
    04:00 -16°C° 0 mm 1 mps 730 mmHg 92%
    05:00 -16°C° 0 mm 1 mps 730 mmHg 93%
    06:00 -16°C° 0 mm 1 mps 731 mmHg 93%
    07:00 -16°C° 0 mm 1 mps 731 mmHg 94%
    08:00 -15°C° 0 mm 1 mps 731 mmHg 92%
    09:00 -14°C° 0 mm 1 mps 731 mmHg 90%
    10:00 -12°C° 0 mm 1 mps 731 mmHg 89%
    11:00 -13°C° 0 mm 2 mps 731 mmHg 87%
    12:00 -12°C° 0 mm 2 mps 730 mmHg 84%
    13:00 -10°C° 0 mm 2 mps 730 mmHg 82%
    14:00 -12°C° 0 mm 2 mps 730 mmHg 85%
    15:00 -12°C° 0 mm 2 mps 729 mmHg 87%
    16:00 -11°C° 0 mm 1 mps 729 mmHg 90%
    17:00 -14°C° 0 mm 2 mps 729 mmHg 91%
    18:00 -15°C° 0 mm 2 mps 730 mmHg 92%
    19:00 -16°C° 0 mm 2 mps 730 mmHg 92%
    20:00 -16°C° 0 mm 2 mps 730 mmHg 92%
    21:00 -17°C° 0 mm 2 mps 729 mmHg 92%
    22:00 -17°C° 0 mm 2 mps 729 mmHg 92%
    23:00 -17°C° 0 mm 2 mps 729 mmHg 92%

    25 January, Friday

    Time Temperature Precipitation Wind Pressure Humidity
    00:00 -17°C° 0 mm 2 mps 729 mmHg 92%
    01:00 -18°C° 0 mm 2 mps 729 mmHg 92%
    02:00 -18°C° 0 mm 2 mps 728 mmHg 92%
    03:00 -18°C° 0 mm 2 mps 728 mmHg 91%
    04:00 -19°C° 0 mm 2 mps 728 mmHg 91%
    05:00 -19°C° 0 mm 2 mps 728 mmHg 91%
    06:00 -19°C° 0 mm 2 mps 728 mmHg 91%
    07:00 -19°C° 0 mm 2 mps 728 mmHg 90%
    08:00 -18°C° 0 mm 2 mps 728 mmHg 87%
    09:00 -16°C° 0 mm 2 mps 728 mmHg 84%
    10:00 -15°C° 0 mm 2 mps 728 mmHg 81%
    11:00 -14°C° 0 mm 2 mps 727 mmHg 79%
    12:00 -12°C° 0 mm 2 mps 726 mmHg 78%
    13:00 -10°C° 0 mm 2 mps 726 mmHg 77%
    14:00 -12°C° 0 mm 2 mps 726 mmHg 81%
    15:00 -13°C° 0 mm 2 mps 726 mmHg 85%
    16:00 -12°C° 0 mm 1 mps 725 mmHg 89%
    17:00 -13°C° 0 mm 1 mps 725 mmHg 89%
    18:00 -14°C° 0 mm 1 mps 726 mmHg 90%
    19:00 -15°C° 0 mm 1 mps 726 mmHg 91%
    20:00 -15°C° 0 mm 1 mps 726 mmHg 91%
    21:00 -16°C° 0 mm 1 mps 726 mmHg 91%
    22:00 -16°C° 0 mm 1 mps 726 mmHg 91%
    23:00 -16°C° 0 mm 1 mps 726 mmHg 91%
    Show more